Location: Gro� Glienicke
(52.4675°N, 13.1079°E)
Time: 02:56:12
(UTC+00:00)

Cosmos 1727 Rocket - Pass Details

Date: 06 July 2020
Orbit: 961 x 996 km, 82.9° (Epoch: 04 August)

Event Time Altitude Azimuth Distance (km) Brightness Sun altitude
Rises 22:16:03 0° 351° (N) 3,672 9.0 -14.0°
Reaches altitude 10° 22:18:38 10° 356° (N) 2,725 7.7 -14.1°
Maximum altitude 22:24:46 56° 74° (ENE) 1,155 4.4 -14.2°
Enters shadow 22:29:27 18° 148° (SSE) 2,216 5.3 -14.4°
